Regional Weather Roundup
Issued by NWS

Home | Current Version | Previous Version | Graphics & Text | Print | Product List | Glossary On
Versions: 1 2 3 4 5 6 7 8 9 10 11 12 13 14 15 16 17 18 19 20 21 22 23 24 25 26 27 28 29 30 31 32 33 34 35 36 37 38 39 40 41 42 43 44 45 46 47 48 49 50
982
ASUS43 KLSX 292257
RWRMO

WEATHER SUMMARY FOR MISSOURI
NATIONAL WEATHER SERVICE SPRINGFIELD MO
600 PM CDT SUN MAY 29 2016

NOTE: "FAIR" INDICATES FEW OR NO CLOUDS BELOW 12,000 FEET WITH NO
       SIGNIFICANT WEATHER AND/OR OBSTRUCTIONS TO VISIBILITY.
       CURRENT SKY AND/OR WEATHER CONDITIONS ARE NOT AVAILABLE FOR
       CHILLICOTHE AND FARMINGTON.

MOZ001>031-035>038-043-044-053-054-300000-
...NORTHERN AND WESTERN MISSOURI...

CITY           SKY/WX    TMP DP  RH WIND       PRES   REMARKS
KANSAS CTY INT CLOUDY    80  64  58 S5        30.04F
LEE`S SUMMIT   CLOUDY    83  56  39 S8        30.05F
ST JOSEPH      CLOUDY    85  59  41 S9        30.01F
CHILLICOTHE      N/A     84  63  49 S3        30.04F

$$
MOZ066>068-077>081-088>096-101>105-300000-
...SOUTHWEST MISSOURI...

CITY           SKY/WX    TMP DP  RH WIND       PRES   REMARKS
SPRINGFIELD    CLOUDY    83  61  47 N5        30.08F
JOPLIN         CLOUDY    82  67  60 N3        30.06F
BRANSON        PTSUNNY   82  61  47 CALM      30.11S

$$
MOZ032>034-039>042-045>050-055>058-069>072-300000-
...CENTRAL MISSOURI...

CITY           SKY/WX    TMP DP  RH WIND       PRES   REMARKS
COLUMBIA       NOT AVBL
JEFFERSON CITY SUNNY     86  56  35 N3        30.05S
ROLLA          SUNNY     83  62  49 NE3       30.07S
SEDALIA        CLOUDY    85  59  41 NW3       30.07S
WARRENSBURG    CLOUDY    82  57  42 SW5       30.05F

$$
MOZ051-052-059>065-300000-
...EAST CENTRAL MISSOURI...

CITY           SKY/WX    TMP DP  RH WIND       PRES   REMARKS
ST LOUIS INTL  MOSUNNY   85  56  37 NW9       30.05F

$$
MOZ072>076-082>087-097>100-106>115-300000-
...SOUTH CENTRAL AND SOUTHEAST MISSOURI...

CITY           SKY/WX    TMP DP  RH WIND       PRES   REMARKS
CAPE GIRARDEAU SUNNY     85  61  44 W7        30.04S
POPLAR BLUFF   SUNNY     85  62  46 NW6       30.05S
WEST PLAINS    CLOUDY    83  60  45 CALM      30.11F

$$



USA.gov is the U.S. government's official web portal to all federal, state and local government web resources and services.